• In Italy
  • List of Countries
  • For 7 days
  • Water Temperature
  • Satellite Maps
  • Weather Map
  • Weather Widgets
  • user-avatar
    Login

    Hourly Weather Irshat

    Today, 16 August, Thursday

    Time Temperature Precipitation Wind Pressure Humidity
    00:00 +15°C° 0 mm 1 mps 747 mmHg 88%
    01:00 +15°C° 0 mm 1 mps 747 mmHg 88%
    02:00 +15°C° 0 mm 1 mps 747 mmHg 88%
    03:00 +14°C° 0 mm 1 mps 747 mmHg 88%
    04:00 +14°C° 0 mm 1 mps 747 mmHg 88%
    05:00 +15°C° 0 mm 2 mps 747 mmHg 86%
    06:00 +16°C° 0 mm 2 mps 747 mmHg 84%
    07:00 +17°C° 0 mm 2 mps 747 mmHg 82%
    08:00 +19°C° 0 mm 3 mps 747 mmHg 76%
    09:00 +21°C° 0 mm 4 mps 747 mmHg 70%
    10:00 +22°C° 0 mm 5 mps 747 mmHg 62%
    11:00 +23°C° 0 mm 5 mps 747 mmHg 59%
    12:00 +24°C° 0 mm 6 mps 747 mmHg 56%
    13:00 +26°C° 0 mm 6 mps 746 mmHg 53%
    14:00 +26°C° 0 mm 6 mps 746 mmHg 54%
    15:00 +26°C° 0 mm 6 mps 746 mmHg 55%
    16:00 +27°C° 0 mm 6 mps 746 mmHg 56%
    17:00 +26°C° 0 mm 5 mps 745 mmHg 61%
    18:00 +23°C° 0 mm 5 mps 745 mmHg 65%
    19:00 +22°C° 0 mm 4 mps 745 mmHg 70%
    20:00 +22°C° 0.1 mm 4 mps 745 mmHg 69%
    21:00 +21°C° 0.1 mm 4 mps 744 mmHg 68%
    22:00 +20°C° 0.1 mm 4 mps 744 mmHg 68%
    23:00 +20°C° 0.1 mm 4 mps 744 mmHg 69%

    Tomorrow, 17 August, Friday

    Time Temperature Precipitation Wind Pressure Humidity
    00:00 +19°C° 0.1 mm 4 mps 744 mmHg 69%
    01:00 +19°C° 0.1 mm 4 mps 744 mmHg 70%
    02:00 +19°C° 0 mm 4 mps 744 mmHg 74%
    03:00 +18°C° 0 mm 4 mps 744 mmHg 78%
    04:00 +17°C° 0 mm 3 mps 744 mmHg 81%
    05:00 +18°C° 0.1 mm 3 mps 744 mmHg 84%
    06:00 +18°C° 0.1 mm 3 mps 744 mmHg 87%
    07:00 +18°C° 0.1 mm 3 mps 744 mmHg 90%
    08:00 +18°C° 0 mm 3 mps 744 mmHg 88%
    09:00 +19°C° 0 mm 4 mps 745 mmHg 87%
    10:00 +19°C° 0 mm 4 mps 745 mmHg 85%
    11:00 +18°C° 0 mm 4 mps 745 mmHg 83%
    12:00 +18°C° 0 mm 4 mps 745 mmHg 81%
    13:00 +18°C° 0 mm 4 mps 745 mmHg 78%
    14:00 +18°C° 0 mm 4 mps 746 mmHg 76%
    15:00 +19°C° 0 mm 4 mps 746 mmHg 74%
    16:00 +19°C° 0 mm 4 mps 746 mmHg 71%
    17:00 +18°C° 0 mm 4 mps 746 mmHg 74%
    18:00 +18°C° 0 mm 3 mps 746 mmHg 77%
    19:00 +17°C° 0 mm 2 mps 746 mmHg 80%
    20:00 +16°C° 0 mm 2 mps 746 mmHg 83%
    21:00 +15°C° 0 mm 2 mps 746 mmHg 85%
    22:00 +14°C° 0 mm 2 mps 746 mmHg 88%
    23:00 +13°C° 0 mm 2 mps 746 mmHg 88%

    Day after tomorrow, 18 August, Saturday

    Time Temperature Precipitation Wind Pressure Humidity
    00:00 +13°C° 0 mm 2 mps 746 mmHg 87%
    01:00 +12°C° 0 mm 2 mps 746 mmHg 87%
    02:00 +12°C° 0 mm 2 mps 746 mmHg 87%
    03:00 +10°C° 0 mm 2 mps 746 mmHg 87%
    04:00 +10°C° 0 mm 2 mps 746 mmHg 88%
    05:00 +11°C° 0 mm 3 mps 747 mmHg 86%
    06:00 +11°C° 0 mm 3 mps 747 mmHg 84%
    07:00 +12°C° 0 mm 3 mps 747 mmHg 83%
    08:00 +13°C° 0 mm 4 mps 747 mmHg 78%
    09:00 +15°C° 0 mm 4 mps 747 mmHg 73%
    10:00 +17°C° 0 mm 4 mps 747 mmHg 68%
    11:00 +18°C° 0 mm 4 mps 747 mmHg 66%
    12:00 +19°C° 0 mm 4 mps 747 mmHg 63%
    13:00 +19°C° 0 mm 4 mps 746 mmHg 61%
    14:00 +19°C° 0.1 mm 5 mps 746 mmHg 60%
    15:00 +19°C° 0.1 mm 5 mps 746 mmHg 60%
    16:00 +19°C° 0.1 mm 5 mps 746 mmHg 60%
    17:00 +17°C° 0 mm 5 mps 746 mmHg 66%
    18:00 +17°C° 0 mm 4 mps 746 mmHg 71%
    19:00 +15°C° 0 mm 4 mps 746 mmHg 76%
    20:00 +13°C° 0 mm 4 mps 747 mmHg 80%
    21:00 +12°C° 0 mm 4 mps 747 mmHg 84%
    22:00 +11°C° 0 mm 4 mps 747 mmHg 88%
    23:00 +10°C° 0 mm 4 mps 747 mmHg 88%

    19 August, Sunday

    Time Temperature Precipitation Wind Pressure Humidity
    00:00 +10°C° 0 mm 3 mps 747 mmHg 88%
    01:00 +9°C° 0 mm 3 mps 747 mmHg 88%
    02:00 +9°C° 0 mm 3 mps 747 mmHg 89%
    03:00 +8°C° 0 mm 3 mps 747 mmHg 89%
    04:00 +8°C° 0 mm 3 mps 747 mmHg 89%
    05:00 +7°C° 0 mm 4 mps 747 mmHg 88%
    06:00 +8°C° 0 mm 4 mps 748 mmHg 86%
    07:00 +8°C° 0 mm 5 mps 748 mmHg 85%
    08:00 +10°C° 0 mm 5 mps 748 mmHg 80%
    09:00 +13°C° 0 mm 6 mps 748 mmHg 74%
    10:00 +15°C° 0 mm 6 mps 748 mmHg 69%
    11:00 +15°C° 0.1 mm 6 mps 747 mmHg 67%
    12:00 +16°C° 0.1 mm 6 mps 747 mmHg 65%
    13:00 +17°C° 0.1 mm 6 mps 747 mmHg 62%
    14:00 +17°C° 0.1 mm 6 mps 747 mmHg 62%
    15:00 +17°C° 0.1 mm 6 mps 747 mmHg 62%
    16:00 +17°C° 0.1 mm 6 mps 747 mmHg 62%
    17:00 +16°C° 0 mm 5 mps 747 mmHg 66%
    18:00 +15°C° 0 mm 5 mps 747 mmHg 70%
    19:00 +14°C° 0 mm 4 mps 747 mmHg 75%
    20:00 +13°C° 0 mm 4 mps 747 mmHg 79%
    21:00 +11°C° 0 mm 4 mps 748 mmHg 82%
    22:00 +10°C° 0 mm 3 mps 748 mmHg 86%
    23:00 +10°C° 0 mm 3 mps 748 mmHg 89%

    20 August, Monday

    Time Temperature Precipitation Wind Pressure Humidity
    00:00 +9°C° 0 mm 3 mps 748 mmHg 91%
    01:00 +9°C° 0 mm 3 mps 748 mmHg 93%
    02:00 +8°C° 0 mm 3 mps 748 mmHg 93%
    03:00 +8°C° 0 mm 3 mps 748 mmHg 94%
    04:00 +8°C° 0 mm 2 mps 749 mmHg 95%
    05:00 +8°C° 0 mm 3 mps 749 mmHg 92%
    06:00 +9°C° 0 mm 3 mps 749 mmHg 89%
    07:00 +10°C° 0 mm 3 mps 749 mmHg 87%
    08:00 +11°C° 0 mm 3 mps 749 mmHg 80%
    09:00 +13°C° 0 mm 4 mps 749 mmHg 73%
    10:00 +15°C° 0 mm 4 mps 749 mmHg 67%
    11:00 +17°C° 0 mm 4 mps 749 mmHg 64%
    12:00 +18°C° 0 mm 4 mps 749 mmHg 61%
    13:00 +19°C° 0 mm 3 mps 748 mmHg 58%
    14:00 +19°C° 0 mm 3 mps 748 mmHg 58%
    15:00 +19°C° 0 mm 3 mps 748 mmHg 57%
    16:00 +20°C° 0 mm 3 mps 748 mmHg 57%
    17:00 +19°C° 0 mm 2 mps 748 mmHg 62%
    18:00 +17°C° 0 mm 2 mps 748 mmHg 67%
    19:00 +16°C° 0 mm 2 mps 748 mmHg 72%
    20:00 +15°C° 0 mm 1 mps 748 mmHg 75%
    21:00 +14°C° 0 mm 1 mps 748 mmHg 78%
    22:00 +13°C° 0 mm 1 mps 748 mmHg 81%
    23:00 +12°C° 0 mm 1 mps 748 mmHg 81%

    21 August, Tuesday

    Time Temperature Precipitation Wind Pressure Humidity
    00:00 +12°C° 0 mm 1 mps 748 mmHg 82%
    01:00 +12°C° 0 mm 1 mps 748 mmHg 82%
    02:00 +12°C° 0 mm 1 mps 749 mmHg 82%
    03:00 +11°C° 0 mm 1 mps 749 mmHg 82%
    04:00 +11°C° 0 mm 1 mps 749 mmHg 82%
    05:00 +12°C° 0 mm 1 mps 749 mmHg 80%
    06:00 +13°C° 0 mm 1 mps 749 mmHg 79%
    07:00 +14°C° 0 mm 2 mps 749 mmHg 77%
    08:00 +16°C° 0 mm 2 mps 749 mmHg 71%
    09:00 +17°C° 0 mm 3 mps 749 mmHg 66%
    10:00 +19°C° 0 mm 3 mps 749 mmHg 61%
    11:00 +20°C° 0 mm 4 mps 749 mmHg 58%
    12:00 +21°C° 0 mm 4 mps 749 mmHg 56%
    13:00 +22°C° 0 mm 5 mps 748 mmHg 54%
    14:00 +22°C° 0 mm 5 mps 748 mmHg 54%
    15:00 +22°C° 0 mm 5 mps 748 mmHg 55%
    16:00 +22°C° 0 mm 5 mps 748 mmHg 55%
    17:00 +21°C° 0 mm 4 mps 747 mmHg 61%
    18:00 +20°C° 0 mm 3 mps 747 mmHg 67%
    19:00 +19°C° 0 mm 3 mps 747 mmHg 73%
    20:00 +18°C° 0 mm 3 mps 747 mmHg 74%
    21:00 +17°C° 0 mm 3 mps 747 mmHg 76%
    22:00 +16°C° 0 mm 3 mps 747 mmHg 78%
    23:00 +14°C° 0 mm 3 mps 747 mmHg 78%
    Show more